Zurück zum Katalog

STARLINK-32890

AktivKommunikationVLEO
NORAD 62896·PAYLOAD·🇺🇸 United States

Gestartet Feb 4, 2025 von Cape Canaveral Space Force Station

Loading…

Nächste Überflüge (nächste 24 Stunden)

TLE

AktuellSource: CelesTrak SupGP

Epoche: Sep 14, 2026, 22:44 UTC

1 62896C 25024T   26257.94770833 -.00013920  00000+0 -50419-3 0  2572
2 62896  43.0029 336.0385 0001371 267.7925 186.0517 15.27585963    19

Verfolge STARLINK-32890 in Echtzeit mit AllMySat

Download on the App Store